[[{"header":{"parameterUnit":"m.s-1","parameterCategory":1,"la1":30.2991,"la2":30.254,"lo1":-89.0895,"lo2":-89.0444,"dy":0.0017,"dx":0.0017,"nx":28,"ny":28,"refTime":"2024-06-19T09:00:00:Z","depth":0,"parameterNumber":2,"parameterNumberName":"U-component_of_WINDS"},"data":[0,0,0,0,0,0,0,0,0,0,0,0,0,0,0,0,0,0,0,0,0,0,0,0,0,0,0,0,0,0,0,0,0,0,0,0,0,0,0,0,0,0,0,0,0,0,0,0,0,0,0,0,0,0,0,0,0,0,-8.8675,-8.8674,0,-8.8605,-8.8604,-8.8603,-8.8331,-8.8324,-8.8318,-8.8312,-8.8246,-8.825,-8.8254,0,0,0,0,0,0,0,0,0,0,0,0,0,-8.8578,-8.8581,-8.8675,-8.8674,-8.8673,-8.8605,-8.8604,-8.8603,-8.8332,-8.8324,-8.8317,-8.8309,-8.8244,-8.8249,-8.8254,0,0,0,0,0,0,0,0,0,0,0,0,0,-8.8576,-8.8582,-8.8675,-8.8529,-8.8516,-8.8605,-8.8604,-8.8603,-8.8333,-8.8324,-8.8315,-8.8306,-8.8243,-8.8249,-8.8255,-8.848,0,0,-8.8273,-8.8276,0,0,0,0,0,0,0,0,-8.8576,-8.858,-8.8552,-8.854,-8.8524,-8.8467,-8.8545,-8.8562,-8.8336,-8.8403,-8.8312,-8.8301,-8.8327,-8.8326,-8.8333,-8.8477,-8.8474,-8.8274,-8.8277,-8.828,-8.8282,0,0,0,0,0,0,0,-8.8577,-8.8581,-8.8647,-8.8552,-8.8535,-8.8469,-8.8458,-8.8547,-8.8419,-8.8396,-8.8376,-8.8371,-8.8318,-8.8328,-8.833,-8.8473,-8.8274,-8.8279,-8.8283,-8.8285,-8.8797,-8.8807,0,0,0,0,0,0,-8.8597,-8.8583,-8.8649,-8.8645,-8.8527,-8.8479,-8.8466,-8.8495,-8.8417,-8.8396,-8.838,-8.8359,-8.8322,-8.8323,-8.8326,-8.8583,-8.828,-8.8286,-8.8289,-8.8788,-8.88,-8.881,0,0,0,0,0,0,-8.8596,-8.8605,-8.8652,-8.8609,-8.8609,-8.849,-8.8524,-8.8498,-8.8508,-8.8404,-8.838,-8.8413,-8.8315,-8.8318,-8.8443,-8.8577,-8.8289,-8.8294,-8.8776,-8.8791,-8.8805,-8.91,0,0,0,0,0,0,-8.8594,-8.8607,-8.869,-8.8612,-8.8613,-8.877,-8.8533,-8.8504,-8.8519,-8.8491,-8.8429,-8.841,-8.8308,-8.8436,-8.8449,-8.858,-8.8299,-8.8763,-8.8783,-8.88,-8.9078,-8.9123,-8.9162,0,0,0,0,0,-8.8592,-8.8778,-8.8696,-8.8705,-8.8714,-8.8778,-8.8778,-8.8655,-8.8531,-8.8614,-8.8547,-8.8412,-8.8561,-8.8451,-8.8464,-8.8599,-8.8754,-8.8777,-8.8799,-8.9059,-8.9114,-8.9161,0,0,0,0,0,0,-8.8876,-8.8765,-8.8673,-8.8839,-8.882,-8.8732,-8.8832,-8.8718,-8.8735,-8.8709,-8.8557,-8.8545,-8.8693,-8.8658,-8.8538,-8.8812,-8.8635,-8.8661,-8.8828,-8.888,-8.8921,-8.8925,-8.8304,0,0,0,0,0,-8.8958,-8.9017,-8.8917,-8.9074,-8.9068,-8.8954,-8.8977,-8.8883,-8.8858,-8.8849,-8.8791,-8.8774,-8.8815,-8.8846,-8.888,-8.9073,-8.9055,-8.9172,-8.9215,-8.925,-8.9273,-8.9371,-8.9421,-8.8884,-8.8884,-8.8883,0,0,-8.9127,-8.9074,-8.9121,-8.9129,-8.9103,-8.9169,-8.8948,-8.9028,-8.9074,-8.8861,-8.8974,-8.8933,-8.8903,-8.9063,-8.913,-8.9039,-8.9418,-8.9278,-8.9307,-8.9311,-8.9399,-8.945,-8.9495,-8.8899,-8.8896,-8.8894,0,0,-8.9468,-8.9436,-8.956,-8.9539,-8.9502,-8.9424,-8.9455,-8.9385,-8.9348,-8.9459,-8.93,-8.9356,-8.9432,-8.9416,-8.9419,-8.9757,-8.9632,-8.9772,-8.9991,-9.0088,-9.013,-9.0167,-9.0285,-9.0329,-8.9797,-8.9798,-8.9798,0,-8.9684,-8.9774,-8.964,-8.9728,-8.9736,-8.9545,-8.967,-8.9657,-8.9635,-8.9645,-8.9544,-8.9634,-8.9601,-8.9754,-8.9836,-8.9846,-8.9875,-8.9776,-9.0135,-9.0171,-9.0203,-9.0313,-9.0358,-8.9814,-8.9812,-8.9811,-8.9809,0,-9.004,-9.0106,-9.0212,-9.0191,-9.0212,-9.032,-9.0202,-9.0239,-9.0146,-9.008,-9.0196,-9.0149,-9.0169,-9.0199,-9.011,-9.034,-9.0284,-9.0162,-8.9979,-9.0273,-9.0374,-9.0416,-8.9839,-8.9832,-8.9827,-8.9823,0,0,-9.0555,-9.0459,-9.05,-9.0488,-9.0434,-9.0483,-9.0583,-9.06,-9.0634,-9.0627,-9.0705,-9.0775,-9.0661,-9.0664,-9.0571,-9.0658,-9.0925,-9.0523,-9.052,-9.0597,-9.1173,-9.1262,-9.1314,-9.0844,-9.0852,-9.0858,-9.1174,0,-9.0877,-9.1037,-9.0919,-9.1101,-9.1159,-9.098,-9.1067,-9.1044,-9.0986,-9.1028,-9.0965,-9.1015,-9.0862,-9.0863,-9.094,-9.0876,-9.1038,-9.0852,-9.0915,-9.0919,-9.0923,-9.1367,-9.1461,-9.1762,-9.1213,-9.122,-9.1225,0,-9.1273,-9.1279,-9.1467,-9.1399,-9.1419,-9.1499,-9.1504,-9.1548,-9.1519,-9.1471,-9.1476,-9.136,-9.1454,-9.1279,-9.1406,-9.1282,-9.1302,-9.1275,-9.1284,-9.1281,-9.1087,-9.1373,-9.1855,-9.1899,-9.1286,-9.1281,-9.1277,0,-9.1625,-9.1682,-9.18,-9.1796,-9.1722,-9.1781,-9.1754,-9.1715,-9.1733,-9.174,-9.175,-9.177,-9.178,-9.1799,-9.1692,-9.1575,-9.1833,-9.1649,-9.1794,-9.1797,-9.1853,-9.185,-9.2341,-9.1874,-9.1873,-9.1872,-9.1871,0,-9.1994,-9.2115,-9.1956,-9.2029,-9.2159,-9.2025,-9.2158,-9.2112,-9.208,-9.2141,-9.199,-9.2051,-9.1909,-9.1956,-9.1875,-9.1991,-9.1998,-9.1962,-9.1938,-9.1972,-9.1977,-9.198,-9.1955,-9.1884,-9.1882,-9.1879,-9.1877,0,-9.2407,-9.2307,-9.2423,-9.2343,-9.2326,-9.2425,-9.2357,-9.2422,-9.2354,-9.2434,-9.2445,-9.234,-9.2388,-9.2285,-9.2319,-9.2264,-9.2428,-9.2374,-9.2437,-9.2419,-9.2569,-9.2555,-9.3076,-9.3136,-9.2635,-9.264,-9.2644,0,-9.2647,-9.2735,-9.2664,-9.2693,-9.2673,-9.2723,-9.2739,-9.2612,-9.2636,-9.261,-9.2678,-9.2713,-9.2733,-9.2819,-9.2747,-9.2772,-9.2714,-9.2896,-9.2717,-9.2749,-9.2713,-9.2707,-9.2714,-9.2931,-9.2937,-9.2942,-9.2946,0,-9.3082,-9.3028,-9.3056,-9.3069,-9.3093,-9.3097,-9.3091,-9.3124,-9.2988,-9.3024,-9.3069,-9.3085,-9.312,-9.3156,-9.3165,-9.3138,-9.3021,-9.3004,-9.3038,-9.3072,-9.3104,-9.3085,-9.2533,-9.2991,-9.2987,-9.2983,-9.2981,-9.2979,-9.3412,-9.3481,-9.3442,-9.3479,-9.3461,-9.3459,-9.3514,-9.3454,-9.3489,-9.3504,-9.3428,-9.3491,-9.3461,-9.3461,-9.3447,-9.3495,-9.3413,-9.3464,-9.3476,-9.3489,-9.3512,-9.3101,-9.3497,-9.3495,-9.3494,-9.3493,-9.3492,0,-9.3836,-9.3802,-9.3838,-9.3832,-9.3862,-9.3748,-9.3736,-9.3769,-9.3825,-9.3806,-9.3829,-9.3882,-9.3917,-9.3849,-9.3873,-9.3925,-9.3872,-9.3936,-9.3928,-9.3924,-9.3585,-9.3551,-9.3978,-9.3978,-9.3978,-9.3978,-9.3978,-9.3978,-9.4059,-9.4169,-9.4111,-9.4211,-9.4176,-9.4234,-9.4236,-9.4234,-9.4218,-9.4283,-9.431,-9.4265,-9.4226,-9.4247,-9.4275,-9.4254,-9.4268,-9.4351,-9.4311,-9.3995,-9.3948,-9.3902,-9.3869,-9.4356,-9.4357,-9.4644,-9.4647,-9.4649]},{"header":{"parameterUnit":"m.s-1","parameterCategory":1,"la1":30.2991,"la2":30.254,"lo1":-89.0895,"lo2":-89.0444,"dy":0.0017,"dx":0.0017,"nx":28,"ny":28,"refTime":"2024-06-19T09:00:00:Z","depth":0,"parameterNumber":3,"parameterNumberName":"V-component_of_WINDS"},"data":[0,0,0,0,0,0,0,0,0,0,0,0,0,0,0,0,0,0,0,0,0,0,0,0,0,0,0,0,0,0,0,0,0,0,0,0,0,0,0,0,0,0,0,0,0,0,0,0,0,0,0,0,0,0,0,0,0,0,0.2592,0.2591,0,0.2474,0.2473,0.2471,0.2368,0.2367,0.2366,0.2365,0.2241,0.2239,0.2237,0,0,0,0,0,0,0,0,0,0,0,0,0,0.2729,0.2727,0.2592,0.2591,0.2589,0.2474,0.2473,0.2471,0.2368,0.2367,0.2365,0.2364,0.2242,0.2239,0.2237,0,0,0,0,0,0,0,0,0,0,0,0,0,0.2646,0.2727,0.2593,0.2524,0.2517,0.2475,0.2473,0.2471,0.2369,0.2367,0.2365,0.2363,0.2243,0.224,0.2236,0.2252,0,0,0.2226,0.2225,0,0,0,0,0,0,0,0,0.2651,0.2641,0.2536,0.2529,0.2521,0.2434,0.2476,0.2397,0.2369,0.2425,0.2364,0.2362,0.2307,0.2298,0.228,0.2246,0.2241,0.2226,0.2224,0.2223,0.2222,0,0,0,0,0,0,0,0.2657,0.2646,0.2545,0.2534,0.2525,0.25,0.2486,0.246,0.2377,0.242,0.2412,0.24,0.2302,0.2283,0.2276,0.2239,0.2226,0.2223,0.2221,0.222,0.2215,0.2217,0,0,0,0,0,0,0.2673,0.2651,0.2549,0.2542,0.2583,0.2499,0.2483,0.2464,0.2377,0.2362,0.2401,0.2395,0.229,0.228,0.2271,0.2285,0.2223,0.222,0.2218,0.2213,0.2215,0.2217,0,0,0,0,0,0,0.2677,0.2665,0.2554,0.2595,0.2578,0.2498,0.2477,0.2462,0.2443,0.2363,0.2348,0.2397,0.2288,0.2276,0.2258,0.228,0.2218,0.2215,0.2211,0.2214,0.2216,0.2313,0,0,0,0,0,0,0.2681,0.2667,0.2672,0.2596,0.2577,0.2543,0.2478,0.2461,0.2438,0.2429,0.2355,0.2341,0.2285,0.2264,0.2255,0.2274,0.2213,0.2209,0.2212,0.2215,0.2307,0.2319,0.2328,0,0,0,0,0,0.2686,0.2702,0.2673,0.2661,0.2581,0.2544,0.2534,0.247,0.244,0.2444,0.2394,0.2343,0.2279,0.2263,0.2252,0.227,0.2207,0.2211,0.2215,0.2303,0.2316,0.2328,0,0,0,0,0,0,0.2781,0.2691,0.2657,0.2649,0.2605,0.2527,0.253,0.2486,0.2449,0.2442,0.2365,0.2349,0.2341,0.2303,0.2287,0.2282,0.2236,0.2239,0.2307,0.2319,0.2329,0.2338,0.221,0,0,0,0,0,0.2802,0.278,0.2702,0.2702,0.2683,0.2611,0.2592,0.2548,0.2499,0.248,0.2427,0.2382,0.2352,0.2333,0.2301,0.2302,0.2285,0.231,0.232,0.2329,0.2332,0.2332,0.2343,0.2231,0.2231,0.2231,0,0,0.2843,0.2791,0.2781,0.272,0.2681,0.2661,0.2596,0.2576,0.2561,0.2476,0.2457,0.2418,0.2362,0.2355,0.2349,0.2324,0.2359,0.2334,0.2342,0.2339,0.2337,0.2348,0.2358,0.2234,0.2233,0.2233,0,0,0.2907,0.2866,0.2862,0.2826,0.2769,0.2721,0.2721,0.265,0.2621,0.2601,0.2539,0.2519,0.2468,0.2432,0.2407,0.2463,0.2416,0.2454,0.2508,0.2509,0.2518,0.2526,0.2547,0.2556,0.2457,0.2457,0.2458,0,0.2965,0.2932,0.2866,0.2852,0.2828,0.2753,0.275,0.2717,0.2652,0.2637,0.2611,0.2547,0.2504,0.2489,0.2503,0.2485,0.2483,0.2462,0.2523,0.2529,0.2535,0.2555,0.2563,0.2462,0.2462,0.2461,0.2461,0,0.3008,0.2986,0.2991,0.2932,0.2908,0.29,0.2833,0.2817,0.2776,0.2732,0.2714,0.266,0.2617,0.261,0.2568,0.2589,0.2576,0.2537,0.2489,0.2552,0.2569,0.2576,0.247,0.2468,0.2466,0.2465,0,0,0.3126,0.3034,0.3037,0.3011,0.2944,0.2926,0.2915,0.2874,0.2863,0.2822,0.2811,0.2772,0.2736,0.2708,0.2662,0.2663,0.2714,0.2624,0.2622,0.2644,0.2736,0.2767,0.2776,0.2683,0.2684,0.2685,0.2742,0,0.3181,0.3157,0.3099,0.3093,0.3074,0.3005,0.2995,0.2954,0.2914,0.2892,0.2846,0.282,0.2775,0.2758,0.2756,0.2708,0.2731,0.2703,0.2673,0.2672,0.2689,0.2785,0.2816,0.2872,0.2748,0.2749,0.2749,0,0.324,0.3205,0.3199,0.3136,0.3126,0.3119,0.3078,0.3058,0.301,0.2981,0.2952,0.2902,0.2888,0.2845,0.2825,0.2807,0.2792,0.2767,0.2767,0.2762,0.2715,0.2783,0.2888,0.2897,0.2759,0.2758,0.2758,0,0.3329,0.3281,0.3271,0.3251,0.3177,0.3174,0.3143,0.3094,0.3075,0.3039,0.3026,0.299,0.297,0.2943,0.2885,0.2858,0.2872,0.2823,0.2848,0.285,0.2853,0.2854,0.2958,0.2843,0.2843,0.2843,0.2843,0,0.3396,0.3395,0.3311,0.3305,0.3303,0.3237,0.3236,0.3199,0.3156,0.3143,0.308,0.3069,0.2993,0.2973,0.2927,0.2919,0.291,0.2887,0.2875,0.2892,0.2896,0.2881,0.2876,0.2845,0.2845,0.2844,0.2844,0,0.3494,0.3438,0.3423,0.3356,0.3339,0.3341,0.3283,0.3276,0.3233,0.3217,0.3209,0.3142,0.3116,0.3056,0.3012,0.2982,0.2986,0.2963,0.3002,0.2995,0.3023,0.3022,0.3122,0.3132,0.3011,0.3012,0.3013,0,0.3541,0.3539,0.3473,0.346,0.3432,0.3412,0.3392,0.3328,0.3311,0.3259,0.3258,0.3227,0.3199,0.3161,0.3108,0.3075,0.3052,0.309,0.3047,0.3066,0.3054,0.3055,0.3056,0.3099,0.3101,0.3102,0.3103,0,0.363,0.3603,0.3578,0.3544,0.3523,0.3493,0.3459,0.3452,0.338,0.3364,0.3337,0.3316,0.3274,0.3245,0.3205,0.3173,0.3127,0.3118,0.3122,0.314,0.3163,0.3152,0.3029,0.3115,0.3114,0.3113,0.3112,0.3112,0.3704,0.37,0.3654,0.3629,0.3598,0.3569,0.3559,0.3517,0.3494,0.3456,0.3419,0.3397,0.3352,0.3295,0.3266,0.3248,0.3225,0.323,0.3232,0.3234,0.3243,0.3167,0.3241,0.324,0.324,0.3239,0.3239,0,0.3791,0.3759,0.3737,0.3693,0.3674,0.3634,0.3596,0.3582,0.3564,0.3527,0.3501,0.3472,0.3445,0.3392,0.3359,0.3355,0.3334,0.3349,0.3349,0.3343,0.3265,0.3265,0.3368,0.3368,0.3368,0.3368,0.3368,0.3368,0.3834,0.3826,0.3795,0.3772,0.3739,0.3718,0.37,0.3674,0.3644,0.3615,0.3592,0.3559,0.3515,0.348,0.3454,0.3439,0.343,0.3453,0.3432,0.336,0.3348,0.3336,0.3336,0.3452,0.3452,0.3511,0.3511,0.3512]}]]